TimeCST,TemperatureF,Dew PointF,Humidity,Sea Level PressureIn,VisibilityMPH,Wind Direction,Wind SpeedMPH,Gust SpeedMPH,PrecipitationIn,Events,Conditions,WindDirDegrees,DateUTC
12:56 AM,46.9,31.1,54,30.08,10.0,South,5.8,-,N/A,,Scattered Clouds,190,2014-02-23 06:56:00
1:56 AM,45.9,31.1,56,30.08,10.0,SSW,3.5,-,N/A,,Clear,200,2014-02-23 07:56:00
2:56 AM,45.9,32.0,58,30.09,10.0,SSW,4.6,-,N/A,,Scattered Clouds,200,2014-02-23 08:56:00
3:56 AM,41.9,32.0,68,30.08,10.0,South,4.6,-,N/A,,Partly Cloudy,190,2014-02-23 09:56:00
4:56 AM,37.9,32.9,82,30.09,10.0,Calm,Calm,-,N/A,,Clear,0,2014-02-23 10:56:00
5:56 AM,36.0,32.9,89,30.08,10.0,Calm,Calm,-,N/A,,Clear,0,2014-02-23 11:56:00
6:56 AM,34.9,32.0,89,30.07,10.0,SSW,3.5,-,N/A,,Clear,200,2014-02-23 12:56:00
7:56 AM,46.9,36.0,66,30.09,10.0,South,3.5,-,N/A,,Clear,190,2014-02-23 13:56:00
8:56 AM,54.9,34.0,45,30.09,10.0,Variable,4.6,-,N/A,,Clear,0,2014-02-23 14:56:00
9:56 AM,61.9,34.9,36,30.10,10.0,SSW,5.8,-,N/A,,Clear,200,2014-02-23 15:56:00
10:56 AM,63.0,34.0,34,30.10,10.0,SSW,4.6,-,N/A,,Clear,200,2014-02-23 16:56:00
11:56 AM,65.8,32.9,29,30.07,10.0,Variable,4.6,-,N/A,,Clear,0,2014-02-23 17:56:00
12:56 PM,68.0,32.9,27,30.04,10.0,NNW,5.8,-,N/A,,Clear,330,2014-02-23 18:56:00
1:56 PM,68.9,32.0,25,30.02,10.0,Variable,5.8,-,N/A,,Clear,0,2014-02-23 19:56:00
2:56 PM,68.9,32.9,26,30.01,10.0,Variable,4.6,-,N/A,,Clear,0,2014-02-23 20:56:00
3:56 PM,68.9,32.0,25,30.01,10.0,Calm,Calm,-,N/A,,Clear,0,2014-02-23 21:56:00
4:56 PM,66.9,34.0,30,30.02,10.0,West,5.8,-,N/A,,Clear,270,2014-02-23 22:56:00
5:56 PM,61.0,37.9,42,30.04,10.0,Calm,Calm,-,N/A,,Partly Cloudy,0,2014-02-23 23:56:00
6:56 PM,54.9,39.9,57,30.05,10.0,Calm,Calm,-,N/A,,Clear,0,2014-02-24 00:56:00
7:56 PM,52.0,39.9,63,30.06,10.0,NNW,3.5,-,N/A,,Clear,340,2014-02-24 01:56:00
8:56 PM,52.9,38.8,59,30.09,10.0,North,5.8,-,N/A,,Clear,10,2014-02-24 02:56:00
9:56 PM,50.0,36.9,61,30.12,10.0,North,9.2,-,N/A,,Clear,360,2014-02-24 03:56:00
10:56 PM,46.9,36.0,66,30.13,10.0,North,12.7,-,N/A,,Clear,10,2014-02-24 04:56:00
11:56 PM,45.0,34.9,68,30.15,10.0,North,8.1,-,N/A,,Clear,10,2014-02-24 05:56:00